Change the Weather History Date:

Tuesday, June 18, 2013

  Actual Average Record
Temperature  
Mean Temperature 68 °F -  
Max Temperature 81 °F 87 °F 96 °F (2001)
Min Temperature 57 °F 60 °F 54 °F (2014)
Cooling Degree Days 4    
Growing Degree Days 18 (Base 50)    
Moisture  
Dew Point 49 °F    
Average Humidity 52    
Maximum Humidity 79    
Minimum Humidity 23    
Precipitation  
Precipitation 0.00 in - - ()
Sea Level Pressure  
Sea Level Pressure 30.13 in    
Wind  
Wind Speed 15 mph (SSE)    
Max Wind Speed 21 mph    
Max Gust Speed 24 mph    
Visibility 10 miles    
Events      
Averages and records for this station are not official NWS values.
T = Trace of Precipitation, MM = Missing Value Source: NWS Daily Summary

Daily Weather History Graph

Daily Weather History Graph

Search for Another Location

Airport or City:

Trip Planner

Search our weather history database for the weather conditions in past years. The results will help you decide how hot, cold, wet, or windy it might be!

Date:

Astronomy

Jun. 18, 2013 Rise Set
Actual Time 5:39 AM PDT 8:34 PM PDT
Civil Twilight 5:07 AM PDT 9:06 PM PDT
Nautical Twilight 4:26 AM PDT 9:47 PM PDT
Astronomical Twilight 3:39 AM PDT 10:34 PM PDT
Moon 3:26 PM PDT (6/18) 1:48 AM PDT (6/18)
Length of Visible Light 15h 59m
Length of Day
14h 55m
Waxing Gibbous, 72% of the Moon is Illuminated
Jun 18
Waxing Gibbous
Jun 23
Full
Jun 29
Last Quarter
Jul 8
New
Jul 15
First Quarter

Hourly Weather History & Observations

Time (PDT) Temp. Dew Point Humidity Pressure Visibility Wind Dir Wind Speed Gust Speed Precip Events Conditions
12:58 AM 64.0 °F 51.8 °F 64% 30.16 in 10.0 mi SSE 20.7 mph - N/A   Clear
1:58 AM 62.1 °F 51.3 °F 68% 30.15 in 10.0 mi SE 15.0 mph - N/A   Clear
2:58 AM 61.3 °F 51.3 °F 69% 30.14 in 10.0 mi SSE 17.3 mph - N/A   Clear
3:58 AM 59.9 °F 51.6 °F 74% 30.15 in 10.0 mi SSE 15.0 mph - N/A   Clear
4:58 AM 59.0 °F 51.4 °F 76% 30.15 in 10.0 mi SSE 15.0 mph - N/A   Clear
5:58 AM 57.7 °F 51.4 °F 79% 30.15 in 10.0 mi SE 16.1 mph - N/A   Clear
6:58 AM 59.7 °F 51.4 °F 74% 30.17 in 10.0 mi SSE 17.3 mph - N/A   Clear
7:58 AM 62.4 °F 51.4 °F 67% 30.17 in 10.0 mi SSE 16.1 mph - N/A   Clear
8:58 AM 64.8 °F 50.5 °F 60% 30.18 in 10.0 mi SSE 15.0 mph - N/A   Clear
9:58 AM 67.8 °F 50.5 °F 54% 30.18 in 10.0 mi South 13.8 mph - N/A   Clear
10:58 AM 70.2 °F 50.5 °F 50% 30.17 in 10.0 mi South 9.2 mph 17.3 mph N/A   Partly Cloudy
11:58 AM 72.1 °F 50.5 °F 46% 30.17 in 10.0 mi SSW 11.5 mph - N/A   Scattered Clouds
12:58 PM 74.8 °F 50.4 °F 42% 30.16 in 10.0 mi SSE 9.2 mph - N/A   Partly Cloudy
1:58 PM 77.4 °F 48.6 °F 36% 30.14 in 10.0 mi Variable 5.8 mph - N/A   Clear
2:58 PM 78.4 °F 46.6 °F 32% 30.13 in 10.0 mi South 10.4 mph 16.1 mph N/A   Clear
3:58 PM 79.3 °F 45.0 °F 30% 30.11 in 10.0 mi South 10.4 mph 18.4 mph N/A   Clear
4:58 PM 80.6 °F 41.2 °F 25% 30.09 in 10.0 mi SSE 5.8 mph 18.4 mph N/A   Clear
5:58 PM 80.6 °F 39.0 °F 23% 30.07 in 10.0 mi SSW 12.7 mph - N/A   Clear
6:58 PM 79.7 °F 43.2 °F 27% 30.05 in 10.0 mi South 18.4 mph 24.2 mph N/A   Clear
7:58 PM 74.5 °F 47.3 °F 38% 30.07 in 10.0 mi South 18.4 mph 23.0 mph N/A   Clear
8:58 PM 69.1 °F 49.6 °F 50% 30.09 in 10.0 mi South 11.5 mph - N/A   Clear
9:58 PM 65.3 °F 48.7 °F 55% 30.12 in 10.0 mi SSE 12.7 mph - N/A   Clear
10:58 PM 63.9 °F 47.5 °F 55% 30.13 in 10.0 mi SSE 15.0 mph - N/A   Clear
11:58 PM 61.2 °F 47.8 °F 62% 30.14 in 10.0 mi SSE 12.7 mph - N/A   Clear